GEFSSGP_con_probscp_024.txt.gz
Probability
0 0 0 0 0 0 0 0 0 0 0 0 0 0 0 0 0 0 1 3 3 1 0 0 0 0 0 0 0 0 0 0 0 0 0 0 0 0 0 0 0 0 0 0 0 0 0 0 0
0 0 0 0 0 0 0 0 0 0 0 0 0 0 0 0 0 0 1 2 1 0 0 0 0 0 0 0 0 0 0 0 0 0 0 0 0 0 0 0 0 0 0 0 0 0 0 0 0
0 0 0 0 0 0 0 0 0 0 0 0 0 0 0 0 0 0 0 0 0 0 0 0 0 0 0 0 0 0 0 0 0 0 0 0 0 0 0 0 0 0 0 0 0 0 0 0 0
0 0 0 0 0 0 0 0 0 0 0 0 0 0 0 0 0 0 0 0 0 0 0 0 0 0 0 0 0 0 0 0 0 0 0 0 0 0 0 0 0 0 0 0 0 0 0 0 0
0 0 0 0 0 0 0 0 0 0 0 0 0 0 0 0 0 0 0 0 0 0 0 0 0 0 0 0 0 0 0 0 0 0 0 0 0 0 0 0 0 0 0 0 0 0 0 0 0
0 0 0 0 0 0 0 0 0 0 0 0 0 0 0 0 0 0 0 0 1 1 0 0 0 0 0 0 0 0 0 0 0 0 0 0 0 0 0 0 0 0 0 0 0 0 0 0 0
0 0 0 0 0 0 0 0 0 0 0 0 0 0 0 0 0 0 0 0 1 1 0 0 0 0 0 0 0 0 0 0 0 0 0 0 0 0 0 0 0 0 0 0 0 0 0 0 0
0 0 0 0 0 0 0 0 1 1 1 0 0 0 0 0 0 0 0 0 1 1 0 0 0 0 0 0 0 0 0 0 0 0 0 0 0 0 0 0 0 0 0 0 0 0 0 0 0
0 0 0 0 0 0 0 0 1 1 1 0 0 0 0 0 0 0 0 0 0 0 0 0 0 0 0 0 0 0 0 0 0 0 0 0 0 0 0 1 3 3 1 0 0 0 0 0 0
0 0 0 0 0 0 0 0 0 0 0 0 1 0 0 0 0 0 0 0 0 0 0 1 1 1 0 1 1 0 0 1 0 0 1 0 0 0 0 4 8 7 3 0 0 0 0 0 0
0 0 0 0 0 0 0 0 0 0 2 7 11 7 2 0 0 0 0 0 0 0 1 4 8 5 1 2 2 0 1 2 3 4 5 2 0 0 1 6 10 8 3 0 0 0 0 0 0
0 0 0 0 0 0 0 0 0 5 15 30 36 23 6 0 0 0 0 0 0 1 1 10 20 14 4 3 3 1 1 3 8 15 12 4 2 1 3 8 10 8 4 2 1 1 0 0 0
0 0 0 0 0 0 0 0 2 15 38 58 60 38 12 2 1 1 1 1 4 6 7 21 37 31 16 9 6 3 2 4 14 24 18 7 7 9 9 10 10 7 6 5 4 2 1 0 0
0 0 0 0 0 0 0 0 5 26 55 74 71 49 24 10 6 8 10 11 15 21 27 42 57 55 39 23 11 5 4 6 15 29 30 18 17 22 21 15 12 8 7 9 8 4 2 1 0
0 0 0 0 0 0 0 0 7 31 61 78 77 65 47 34 26 26 32 33 35 45 56 66 72 74 66 46 25 11 7 12 25 42 52 42 34 39 39 31 27 22 20 20 16 8 3 1 0
0 0 0 0 0 0 0 0 8 31 60 77 82 79 74 66 57 55 60 60 60 70 82 85 82 86 86 73 53 33 26 34 49 64 74 68 57 57 59 54 50 46 42 37 28 18 9 2 1
0 0 0 0 0 0 0 1 8 28 53 71 79 84 88 86 80 78 80 79 82 89 96 96 94 95 96 92 81 65 59 65 73 81 87 86 78 74 75 74 69 63 59 50 40 33 22 9 3
0 0 0 0 0 0 0 1 6 19 38 54 65 77 86 89 87 88 90 89 93 98 100 100 100 100 100 99 95 89 85 85 85 87 91 94 91 87 86 84 79 75 70 59 50 44 33 17 10
0 0 0 0 0 0 0 0 2 8 18 31 47 64 76 82 86 91 94 95 97 100 100 100 100 100 100 100 100 98 95 92 88 87 91 96 97 95 92 89 85 83 79 69 57 47 33 20 14
0 0 0 0 0 0 0 0 0 2 8 20 39 59 69 74 82 91 95 97 99 100 100 100 100 100 100 100 100 100 98 93 89 90 93 96 97 96 94 91 89 86 82 71 59 46 31 19 14
0 0 0 0 0 0 0 0 0 2 9 22 40 58 71 78 85 91 95 97 99 100 100 100 100 100 100 100 100 100 99 96 94 95 97 97 97 97 94 91 87 84 78 68 57 45 33 22 16
0 0 0 0 0 0 0 0 0 3 12 26 43 62 80 90 93 94 96 98 100 100 100 100 100 100 100 100 100 100 100 99 98 99 99 99 98 97 93 87 83 79 72 63 52 42 35 24 15
0 0 0 0 0 0 0 0 0 3 16 37 59 77 89 94 94 95 97 98 99 100 100 100 100 100 100 100 100 100 100 100 100 100 100 99 98 96 89 83 80 76 68 58 47 39 33 24 15
0 0 0 0 0 0 0 0 5 15 37 64 83 91 91 86 85 90 94 96 99 100 100 100 100 100 100 100 100 100 100 100 100 100 100 100 99 96 88 80 76 72 62 51 40 32 26 20 16
0 0 0 0 0 0 0 6 24 49 73 89 97 94 83 73 72 80 89 94 97 99 100 100 100 100 100 100 100 100 100 100 100 100 99 99 99 96 86 73 65 60 50 40 31 24 19 15 14
0 0 0 0 0 0 0 14 48 79 92 93 88 79 68 59 59 67 78 87 93 97 100 100 100 100 100 100 100 100 100 100 100 99 98 97 94 87 74 58 47 42 35 28 22 17 14 11 11
0 0 2 2 1 0 0 17 56 86 87 74 60 50 44 40 42 49 61 73 84 91 96 98 99 100 99 99 98 98 99 99 99 97 91 84 74 60 47 35 26 22 19 15 12 11 10 10 10
0 1 4 6 4 1 0 15 52 81 77 53 32 22 19 19 23 31 42 55 67 78 87 92 95 96 95 94 93 91 90 88 85 79 68 54 38 26 18 13 9 7 6 4 4 5 5 6 6
0 0 3 5 5 3 2 13 40 66 64 40 19 9 6 6 9 15 24 34 44 55 67 77 81 82 82 80 76 72 67 59 52 42 31 20 11 6 3 2 2 1 1 0 0 1 1 1 2
0 0 1 2 3 4 5 11 27 48 51 33 13 5 3 2 3 6 12 19 26 36 50 62 66 67 68 65 58 51 45 35 25 16 10 5 2 1 0 0 0 0 0 0 0 0 0 0 0

GEFSSGP_con_probscp_030.txt.gz
Probability
0 0 0 0 0 0 0 0 0 0 0 0 0 0 0 0 0 0 0 0 0 0 0 0 0 0 0 0 0 0 0 0 0 0 0 0 0 0 0 0 0 0 0 0 0 0 0 0 0
0 0 0 0 0 0 0 0 0 0 0 0 0 0 0 0 0 0 0 0 0 0 0 0 0 0 0 0 0 0 0 0 0 0 0 0 0 0 0 0 0 0 0 0 0 0 0 0 0
0 0 0 0 0 0 0 0 0 0 0 0 0 0 0 0 0 0 0 0 0 0 0 0 0 0 0 0 0 0 0 0 0 0 0 0 0 0 0 0 0 0 0 0 0 0 0 0 0
0 0 0 0 0 0 0 0 0 0 0 0 0 0 0 0 0 0 0 0 0 0 0 0 0 0 0 0 0 0 0 0 0 0 0 0 0 0 0 0 0 0 0 0 0 0 0 0 0
0 0 0 0 0 0 0 0 0 0 0 0 0 0 0 0 0 0 0 0 0 0 0 0 0 0 0 0 0 0 0 0 0 0 0 0 0 0 0 0 0 0 0 0 0 0 0 0 0
0 0 0 0 0 0 0 0 0 0 0 0 0 0 0 0 0 0 0 0 0 0 0 0 0 0 0 0 0 0 0 0 0 0 0 0 0 0 0 0 0 0 0 0 0 0 0 0 0
0 0 0 0 0 0 0 0 0 0 0 0 0 0 0 0 1 1 1 0 0 0 0 0 0 0 0 0 0 0 0 0 0 0 0 0 0 0 0 0 0 0 0 0 0 0 0 0 0
0 0 0 0 0 0 0 0 0 0 0 0 0 0 0 1 6 10 6 2 0 0 0 0 0 0 0 0 0 0 0 0 0 0 0 0 0 0 0 0 0 0 0 0 0 0 0 0 0
0 0 0 0 0 0 0 0 0 0 0 0 0 0 1 7 19 26 19 7 1 0 0 0 0 0 0 0 0 0 0 0 0 0 0 0 0 0 0 0 0 0 0 0 1 1 0 0 0
0 0 0 0 0 0 0 0 0 0 0 0 0 0 3 12 29 38 30 14 4 1 0 0 0 0 0 0 0 0 0 0 0 0 0 0 0 0 0 0 0 0 0 0 1 1 0 0 0
0 0 0 0 0 0 0 0 1 1 2 2 3 3 5 12 25 35 32 19 8 2 0 0 0 0 0 0 0 0 0 0 0 0 0 0 0 0 0 0 0 0 0 0 1 1 0 0 0
0 0 0 0 0 0 0 0 1 3 5 7 8 7 5 6 13 22 25 19 12 5 1 0 0 0 0 0 0 0 0 0 0 0 0 0 0 0 0 0 0 0 0 0 0 0 0 0 0
0 0 0 0 0 0 0 1 3 7 12 17 16 11 6 3 4 9 15 18 16 10 5 2 1 0 0 0 0 0 0 0 0 0 0 0 0 0 0 0 0 0 0 0 0 0 0 0 0
0 0 0 0 0 0 0 1 6 16 27 31 25 16 9 5 5 7 13 19 20 18 16 13 8 4 3 2 1 0 0 0 0 0 0 0 0 0 0 0 0 0 0 0 0 0 0 0 0
0 0 0 0 0 0 0 1 9 29 50 54 43 30 20 14 13 15 20 24 26 30 36 35 27 20 16 12 6 2 2 1 1 0 0 1 1 1 1 1 0 0 0 0 0 0 0 0 0
0 0 0 0 0 0 0 1 11 40 71 79 68 55 43 32 26 26 31 35 37 45 58 61 53 44 38 29 18 12 11 9 5 3 2 4 4 4 4 3 2 2 1 1 0 0 0 0 0
0 0 0 0 0 0 0 1 11 40 73 88 85 76 65 53 45 43 45 49 54 63 74 79 77 70 63 54 44 38 34 25 15 10 11 13 15 14 10 7 5 4 2 1 0 0 0 0 0
0 0 0 0 0 0 0 1 10 34 64 82 86 82 74 65 60 58 58 61 68 76 83 86 89 88 85 82 77 70 58 42 26 21 23 27 30 28 22 18 14 10 7 3 1 1 0 0 0
0 0 0 0 0 0 0 1 10 33 61 78 83 83 77 69 66 65 65 68 74 81 86 88 92 95 97 97 96 88 72 51 34 27 31 36 39 40 38 33 25 18 13 7 3 3 1 0 1
0 0 0 0 0 0 0 1 9 30 55 71 79 83 80 73 69 69 68 68 72 77 82 86 89 92 95 98 98 92 78 59 41 32 33 36 39 45 47 40 29 22 17 11 6 4 3 1 1
0 0 0 0 0 0 0 0 5 19 39 58 72 80 81 74 68 67 67 65 66 69 74 78 81 85 88 92 95 93 84 70 52 38 32 31 34 39 40 36 27 21 18 13 8 5 3 2 1
0 0 0 0 0 0 0 0 2 10 27 47 65 76 79 73 66 64 63 62 62 64 67 70 75 78 80 84 88 88 84 74 59 45 35 29 27 28 29 29 25 21 16 11 7 5 3 1 0
0 0 0 0 0 0 0 0 1 7 20 38 57 70 74 71 66 63 62 61 63 65 66 66 69 71 72 75 78 79 77 70 61 51 39 30 25 22 23 24 21 17 12 8 5 4 2 0 0
0 0 0 0 0 0 0 0 2 9 18 30 45 57 61 64 64 62 58 59 63 66 67 64 64 63 64 67 71 73 72 69 64 55 42 31 24 20 19 18 15 10 7 4 2 2 2 0 0
0 0 0 0 0 0 0 0 5 13 18 21 28 35 40 45 50 51 50 51 57 64 67 64 61 61 62 67 71 73 72 69 63 53 41 30 22 18 15 13 9 6 3 1 0 1 1 0 0
0 0 0 0 0 0 0 1 5 11 12 10 12 15 18 22 27 32 35 39 48 58 64 64 64 65 68 72 74 73 71 66 55 43 32 24 17 12 10 7 5 3 2 0 0 0 0 0 0
0 0 0 0 0 0 0 1 3 5 3 2 2 3 4 6 10 15 21 28 36 44 52 56 60 64 67 69 68 65 60 51 39 26 18 13 8 5 3 2 1 1 1 0 0 0 0 0 0
0 0 0 0 0 0 0 0 1 1 0 0 0 0 0 1 2 5 11 17 24 28 32 37 43 47 49 49 47 42 34 25 17 10 6 4 2 0 0 0 0 0 0 0 0 0 0 0 0
0 0 0 0 0 0 0 0 0 0 0 0 0 0 0 0 0 1 3 7 12 15 16 19 22 24 24 22 20 15 10 6 3 2 1 1 0 0 0 0 0 0 0 0 0 0 0 0 0
0 0 0 0 0 0 0 0 0 0 0 0 0 0 0 0 0 0 0 2 5 7 9 11 12 12 10 7 5 3 1 0 0 0 0 0 0 0 0 0 0 0 0 0 0 0 0 0 0

GEFSSGP_con_probscp_036.txt.gz
Probability
0 0 0 0 0 0 0 0 0 0 0 0 0 0 0 0 0 0 0 0 0 0 0 0 0 0 0 0 0 0 0 0 0 0 0 0 0 0 1 0 0 0 0 0 0 0 0 0 0
0 0 0 0 0 0 0 0 0 0 0 0 0 0 0 0 0 0 0 0 0 0 0 0 0 0 0 0 0 0 0 0 0 0 0 0 0 0 1 0 0 0 0 0 0 0 0 0 0
0 0 0 0 0 0 0 0 0 0 0 0 0 0 0 0 0 0 0 0 0 0 0 0 0 0 0 0 0 0 0 0 0 0 0 0 0 0 0 0 0 0 0 0 0 0 0 0 0
0 0 0 0 0 0 0 0 0 0 0 0 0 0 0 0 0 0 0 0 0 0 0 0 0 0 0 0 0 0 0 0 0 0 0 0 0 0 0 0 0 0 0 0 0 0 0 0 0
0 0 0 0 0 0 0 0 0 0 0 0 0 0 0 0 0 0 0 0 0 0 0 0 0 0 0 0 0 0 0 0 0 0 0 0 0 0 0 0 0 0 0 0 0 0 0 0 0
0 0 0 0 0 0 0 0 0 0 0 0 0 0 0 0 0 0 0 0 0 0 0 0 0 0 0 0 0 0 0 0 0 0 0 0 0 0 0 0 0 0 0 0 0 0 0 0 0
0 0 0 0 0 0 0 0 0 0 0 0 0 0 0 0 0 0 0 0 0 0 0 0 0 0 0 0 0 0 0 0 0 0 0 0 0 0 0 0 0 0 0 0 0 0 0 0 0
0 0 0 0 0 0 0 0 0 0 0 0 0 0 0 0 0 0 0 0 0 0 0 0 0 0 0 0 0 0 0 0 0 0 0 0 0 0 0 0 0 0 0 0 0 0 0 0 0
0 0 0 0 0 0 0 0 0 0 0 0 0 0 0 0 0 0 0 0 0 0 0 0 0 0 0 0 0 0 0 0 0 0 1 0 0 0 0 0 0 0 0 0 0 0 0 0 0
0 0 0 0 0 0 0 0 0 0 0 0 0 0 1 1 0 0 0 0 0 0 0 0 0 0 0 0 0 0 0 0 0 0 0 0 0 0 0 0 0 0 0 0 0 0 0 0 0
0 0 0 0 0 0 0 0 0 0 0 0 1 4 8 6 2 0 0 0 0 0 0 0 0 0 0 0 0 0 0 0 0 0 0 0 0 0 0 0 0 0 0 0 0 0 0 0 0
0 0 0 0 0 0 0 0 0 0 0 0 3 15 26 20 7 1 0 0 0 0 0 0 0 0 0 0 0 0 0 0 0 0 0 0 0 0 0 0 0 0 0 0 0 0 0 0 0
0 0 0 0 0 0 0 0 0 0 0 1 10 30 47 41 22 8 3 1 1 0 0 0 0 0 0 0 0 0 0 0 0 0 0 0 0 0 0 0 0 0 0 0 0 0 0 0 0
0 0 0 0 0 0 0 0 0 0 0 3 17 41 59 60 45 28 18 12 6 2 0 0 0 0 0 0 0 0 0 0 0 0 0 0 0 0 0 0 0 0 0 0 0 0 0 0 0
0 0 0 0 0 0 0 0 0 0 0 4 19 41 59 66 63 54 46 37 24 12 5 2 2 1 0 0 0 0 0 0 0 0 0 0 0 0 0 0 0 0 0 0 0 0 0 0 0
0 0 0 0 0 0 0 0 0 0 1 4 13 31 48 58 64 68 68 64 51 34 19 12 9 7 4 3 3 3 2 1 0 0 0 0 1 1 1 0 0 0 0 0 0 0 0 0 0
0 0 0 0 0 0 0 0 0 0 1 4 11 24 37 45 54 63 70 73 70 59 45 36 30 23 17 14 12 10 8 6 4 2 3 3 3 3 2 1 0 0 0 0 0 0 0 0 0
0 0 0 0 0 0 0 2 3 3 3 8 16 27 37 41 46 54 62 68 71 70 68 65 60 52 44 40 34 27 21 15 9 7 7 7 7 6 3 1 0 0 1 2 2 1 0 0 0
0 0 0 0 0 0 1 4 7 8 10 16 28 41 49 50 51 54 58 61 63 67 73 77 77 74 71 69 64 54 43 32 23 19 16 13 12 11 7 3 1 2 4 5 5 3 1 0 1
0 0 0 0 0 0 1 3 6 9 15 24 37 49 55 54 52 52 53 54 55 57 62 70 75 77 79 81 80 75 64 53 46 39 31 24 20 19 14 7 3 3 5 6 5 3 1 1 1
0 0 0 0 0 0 0 1 3 6 11 22 32 38 41 41 40 39 41 44 47 49 50 57 64 68 73 78 81 79 73 66 60 53 42 31 25 23 18 10 6 5 6 6 5 3 2 2 2
0 0 0 0 0 0 0 0 1 2 5 11 16 18 20 22 23 24 26 30 36 40 42 45 52 59 66 73 76 75 70 64 59 51 41 28 21 20 18 12 8 7 6 5 4 3 3 3 4
0 0 0 0 0 0 0 0 0 0 1 3 5 6 7 9 12 14 15 18 22 27 32 37 44 52 58 63 65 65 61 54 46 39 32 21 13 13 13 9 7 6 4 3 2 2 2 2 3
0 0 0 0 0 0 0 0 0 0 0 1 1 2 3 3 5 6 7 8 11 15 22 30 37 43 48 50 51 51 48 41 33 26 21 13 8 8 7 5 4 3 2 1 0 0 0 1 1
0 0 0 0 0 0 0 0 0 0 0 0 0 1 1 1 1 1 2 3 4 6 13 22 28 32 36 37 37 38 35 29 23 18 13 9 6 5 4 3 2 1 1 0 0 0 0 0 0
0 0 0 0 0 0 0 0 0 0 0 0 0 0 0 0 0 0 0 1 1 3 7 13 18 22 26 27 27 26 23 17 12 10 7 6 5 3 2 1 1 0 0 0 0 0 0 0 0
0 0 0 0 0 0 0 0 0 0 0 0 0 0 0 0 0 0 0 0 0 2 3 6 11 15 18 21 20 16 11 6 3 2 2 2 1 1 0 0 0 0 0 0 0 0 0 0 0
0 0 0 0 0 0 0 0 0 0 0 0 0 0 0 0 0 0 0 0 0 1 2 4 7 10 12 12 12 7 3 1 0 0 0 0 0 0 0 0 0 0 0 0 0 0 0 0 0
0 0 0 0 0 0 0 0 0 0 0 0 0 0 0 0 0 0 0 0 0 0 1 3 4 6 7 5 4 2 1 0 0 0 0 0 0 0 0 0 0 0 0 0 0 0 0 0 0
0 0 0 0 0 0 0 0 0 0 0 0 0 0 0 0 0 0 0 0 0 0 0 1 3 4 4 2 1 0 0 0 0 0 0 0 0 0 0 0 0 0 0 0 0 0 0 0 0

GEFSSGP_con_probscp_042.txt.gz
Probability
0 0 0 0 0 0 0 0 0 0 0 0 0 0 0 0 0 0 0 0 0 0 0 0 0 0 0 0 0 0 0 0 0 0 0 0 0 0 0 0 0 0 0 0 0 0 0 0 0
0 0 0 0 0 0 0 0 0 0 0 0 0 0 0 0 0 0 0 0 0 0 0 0 0 0 0 0 0 0 0 0 0 0 0 0 0 0 0 0 0 0 0 0 0 0 0 0 0
0 0 0 0 0 0 0 0 0 0 0 0 0 0 0 0 0 0 0 0 0 0 0 0 0 0 0 0 0 0 0 0 0 0 0 0 0 0 0 0 0 0 0 0 0 0 0 0 0
0 0 0 0 0 0 0 0 0 0 0 0 0 0 0 0 0 0 0 0 0 0 0 0 0 0 0 0 0 0 0 0 0 0 0 0 0 0 0 0 0 0 0 0 0 0 0 0 0
0 0 0 0 0 0 0 0 0 0 0 0 0 0 0 0 0 0 0 0 0 0 0 0 0 0 0 0 0 0 0 0 0 0 0 0 0 0 0 0 0 0 0 0 0 0 0 0 0
0 0 0 0 0 0 0 0 0 0 0 0 0 0 0 0 0 0 0 0 0 0 0 0 0 0 0 0 0 0 0 0 0 0 0 0 0 0 0 0 0 0 0 0 0 0 0 0 0
0 0 0 0 0 0 0 0 0 0 0 0 0 0 0 0 0 0 0 0 0 0 0 0 0 0 0 0 0 0 0 0 0 0 0 0 0 0 0 0 0 0 0 0 0 0 0 0 0
0 0 0 0 0 0 0 0 0 0 0 0 0 0 0 0 0 0 0 0 0 0 0 0 0 0 0 0 0 0 0 0 0 0 0 0 0 0 0 0 0 0 0 0 0 0 0 0 0
0 0 0 0 0 0 0 0 0 0 0 0 0 0 0 1 1 1 1 0 0 0 0 0 0 0 0 0 0 0 0 0 0 0 0 0 0 0 0 0 0 0 0 0 0 0 0 0 0
0 0 0 0 0 0 0 0 0 0 0 0 0 0 1 4 6 5 3 1 0 0 0 0 0 0 0 0 0 0 0 0 0 0 0 0 0 0 0 0 0 0 0 0 0 0 0 0 0
0 0 0 0 0 0 0 0 0 0 0 0 0 0 3 11 15 11 6 3 1 0 0 0 0 0 0 0 0 0 0 0 0 0 0 0 0 0 0 0 0 0 0 0 0 0 0 0 0
0 0 0 0 0 0 0 0 0 0 0 0 0 1 6 16 22 17 9 5 2 1 1 1 1 1 1 1 0 0 0 0 0 1 0 0 0 0 0 0 0 0 0 0 0 0 0 0 0
0 0 0 0 0 0 0 0 0 0 0 0 0 1 6 14 20 18 13 8 5 3 3 4 6 7 7 6 3 1 0 0 1 2 1 0 0 0 0 0 0 0 0 0 0 0 0 0 0
0 0 0 0 0 0 0 0 0 0 0 0 0 1 5 11 18 22 21 15 9 6 6 8 13 19 21 16 8 3 1 1 1 2 3 4 3 3 3 3 2 1 0 0 0 0 0 0 0
0 0 0 0 0 0 0 0 1 1 1 0 2 5 11 19 26 30 32 26 16 11 12 14 19 32 41 36 22 10 3 3 5 8 12 15 14 14 14 12 8 6 5 6 6 4 3 3 2
0 0 0 0 0 0 0 1 3 5 5 5 10 18 28 40 45 43 41 38 31 27 31 33 35 47 60 62 49 31 21 20 22 27 33 37 35 35 37 31 24 23 21 20 20 16 14 13 10
0 0 0 0 0 0 0 2 8 13 16 21 29 38 50 63 69 61 51 48 49 52 59 64 64 66 76 83 77 63 55 53 52 55 61 63 61 62 62 55 48 45 42 38 34 31 30 27 24
0 0 0 0 0 0 1 4 12 22 31 41 51 59 68 78 84 77 64 59 63 71 80 86 86 85 89 94 93 88 83 81 78 78 80 81 80 81 79 74 68 65 60 52 44 39 38 34 30
0 0 0 0 0 0 1 5 14 26 40 54 66 74 81 85 87 83 75 72 76 81 87 91 93 93 95 97 98 96 94 93 91 88 87 87 87 87 85 82 81 80 72 62 51 45 40 34 29
0 0 0 0 0 0 1 4 10 20 32 48 65 76 81 82 83 83 81 82 86 89 91 93 94 94 94 95 96 96 95 93 92 91 89 87 87 87 85 84 86 85 79 68 59 52 44 36 31
0 0 0 0 0 0 0 1 4 8 14 25 44 60 67 68 72 76 78 81 87 92 93 93 93 92 93 94 94 94 92 90 91 91 90 88 87 85 83 81 81 81 77 72 65 57 48 40 36
0 0 0 0 0 0 0 0 1 2 3 8 22 38 45 48 51 55 60 67 76 83 86 88 89 90 91 93 93 91 91 90 90 90 89 87 85 83 80 76 74 73 71 68 64 56 46 38 35
0 0 0 0 0 0 0 0 0 1 1 4 11 20 25 26 26 28 33 40 50 60 67 74 81 85 88 91 91 91 91 90 89 88 86 84 83 81 77 71 67 66 63 61 56 49 39 33 32
0 0 0 0 0 0 0 0 0 0 1 3 6 8 9 9 8 9 11 15 24 35 44 56 69 76 80 85 87 89 90 90 89 87 84 83 83 80 74 66 63 60 56 54 50 41 33 29 29
0 0 0 0 0 0 0 0 0 0 1 2 3 2 2 1 1 1 2 3 9 17 26 39 55 65 69 74 79 83 86 88 88 88 87 85 84 79 71 63 59 55 49 45 41 34 27 23 20
0 0 0 0 0 0 0 0 0 0 0 1 1 1 0 0 0 0 0 1 3 6 13 24 38 52 61 67 73 79 84 86 87 88 88 87 84 76 66 57 51 46 38 31 28 23 18 13 9
0 0 0 0 0 0 0 0 0 0 0 0 0 0 0 0 0 0 0 0 0 1 4 12 24 37 49 58 65 71 77 81 83 82 80 80 76 66 55 45 37 31 25 19 15 11 7 5 4
0 0 0 0 0 0 0 0 0 0 0 0 0 0 0 0 0 0 0 1 0 0 1 5 13 23 33 42 50 55 62 69 71 68 63 59 54 46 37 29 22 18 14 9 7 5 4 3 3
0 0 0 0 0 0 0 0 0 0 0 0 0 0 0 0 0 0 0 0 0 0 1 3 7 12 18 24 30 34 41 48 52 49 41 32 26 23 19 14 12 10 7 4 3 3 2 2 1
0 0 0 0 0 0 0 0 0 0 0 0 0 0 0 0 0 0 0 0 0 0 1 2 5 8 11 14 17 21 26 32 37 37 28 17 11 9 7 6 6 6 4 2 1 1 1 1 0